Main page
METAR-TAF:

METAR-TAF

Airports :

Valencia, Spain

latitude: 39-37-26N, longitude: 0-28-26W, elevation: 127 m

Current weather observation

The report was made 26 minutes ago, at 20:00 UTC
Wind 9 kt from the West/Northwest with gusts up to 19 kt, varying between West/Southwest and North
Temperature 15°C
Humidity 51%
Pressure 1020 hPa
Visibility 10 km or more

METAR: LEBT 182000Z AUTO 30009G19KT 240V350 9999 // NCD 15/05 Q1020

Time: 21:26 (20:26 UTC)


TAF: missing

Weather observations and forecasts of more than 4000 airports (METAR and TAF reports).

The available stations are represented by yellow and red dots on the map.

Hover mouse over dot to see the name of the station.

Then click to see weather observations and forecasts.

To change the map : click on the green buttons with a black cross to zoom in, on the green button with a dash to zoom out, or on the green arrows for adjacent maps.


METAR-TAF: